This demonstration page uses our WeatherBlox Daily Observations layout. Learn more.

Left ArrowRight Arrow

39.01783, -85.05884

Hourly Observations for February 24, 2019

Temp ( °F °C ) Dew Point ( °F °C ) Humidity (%) Winds ( mph kmh ) Pressure ( in mb ) Visibility ( mi km ) Precip ( " mm )
12:23 am 00:23 Cloudy 57 13.9 54 12.2 90 90 SSE 21 33 29.54 1000 10 16 0.00 0.03
12:52 am 00:52 Cloudy 58 14.4 55 12.8 90 90 S 22 35 29.53 1000 10 16 0.00 0.03
1:52 am 01:52 Cloudy 59 15 55 12.8 87 87 S 14 22 29.50 999 10 16 0.00 0.00
2:52 am 02:52 Partly Cloudy 58 14.4 54 12.2 87 87 SSW 10 17 29.47 998 10 16 0.00 0.00
3:32 am 03:32 Mostly Cloudy 59 15 54 12.2 83 83 SW 14 22 29.48 998 10 16 0.00 0.00
3:52 am 03:52 Mostly Cloudy 59 15 52 11.1 78 78 SW 14 22 29.47 998 10 16 0.00 0.00
4:52 am 04:52 Clear 56 13.3 47 8.3 72 72 SW 13 20 29.47 998 10 16 0.00 0.00
5:52 am 05:52 Clear 55 12.8 42 5.6 62 62 SW 15 24 29.48 998 10 16 0.00 0.00
6:52 am 06:52 Mostly Clear 53 11.7 40 4.4 61 61 SW 18 30 29.49 999 10 16 0.00 0.00
7:52 am 07:52 Cloudy 50 10 38 3.3 63 63 W 35 56 29.54 1000 10 16 0.00 0.00
8:52 am 08:52 Cloudy 42 5.6 32 0 68 68 W 36 57 29.64 1004 10 16 0.00 0.00
9:52 am 09:52 Cloudy 39 3.9 29 -1.7 67 67 WSW 29 46 29.70 1006 10 16 0.00 0.00
10:52 am 10:52 Cloudy 38 3.3 28 -2.2 68 68 WSW 22 35 29.76 1008 10 16 0.00 0.00
11:52 am 11:52 Cloudy 38 3.3 28 -2.2 68 68 W 22 35 29.80 1009 10 16 0.00 0.00
12:52 pm 12:52 Cloudy 39 3.9 27 -2.8 62 62 W 23 37 29.83 1010 10 16 0.00 0.00
1:52 pm 13:52 Cloudy 39 3.9 27 -2.8 62 62 W 26 43 29.85 1011 10 16 0.00 0.00
2:52 pm 14:52 Mostly Cloudy 42 5.6 27 -2.8 55 55 W 24 39 29.87 1012 10 16 0.00 0.00
3:52 pm 15:52 Partly Cloudy 43 6.1 24 -4.4 47 47 WSW 22 35 29.90 1013 10 16 0.00 0.00
4:52 pm 16:52 Mostly Sunny 43 6.1 21 -6.1 42 42 W 23 37 29.93 1014 10 16 0.00 0.00
5:52 pm 17:52 Mostly Sunny 41 5 20 -6.7 43 43 W 28 44 29.96 1014 10 16 0.00 0.00
6:52 pm 18:52 Mostly Clear 39 3.9 19 -7.2 45 45 W 26 43 29.99 1016 10 16 0.00 0.00
7:52 pm 19:52 Clear 37 2.8 19 -7.2 48 48 W 35 56 30.03 1017 10 16 0.00 0.00
8:52 pm 20:52 Clear 36 2.2 18 -7.8 48 48 W 23 37 30.06 1018 10 16 0.00 0.00
9:52 pm 21:52 Clear 33 0.6 16 -8.9 49 49 W 20 31 30.11 1020 10 16 0.00 0.00
10:52 pm 22:52 Clear 32 0 15 -9.4 50 50 W 22 35 30.13 1020 10 16 0.00 0.00
11:52 pm 23:52 Clear 32 0 16 -8.9 52 52 W 20 31 30.14 1021 10 16 0.00 0.00

Powered by AerisWeather